FW2619 Weather Reports


time (UTC)temp
F
wind
direction
speed
knots
gust
knots
rain 1hr
in
rain 24hr
in
rain mn
in
humidity
%
barometer
mb
20260505064910 47 269 0.0 0.0 0.01 0.04 0.01 93 1009.0
20260505064408 47 269 0.0 0.0 0.00 0.03 0.00 92 1008.9
20260505061910 47 269 0.0 0.0 0.01 0.03 0.00 92 1008.9
20260505061407 47 269 0.0 0.0 0.01 0.03 0.00 92 1008.8
20260505060905 47 269 0.0 0.0 0.01 0.03 0.00 92 1008.8
20260505060408 47 269 0.0 0.0 0.01 0.03 0.00 92 1008.9
20260505054905 47 269 0.0 0.0 0.02 0.03 0.03 92 1008.9
20260505054409 47 269 0.0 0.0 0.02 0.03 0.03 92 1009.1
20260505053908 47 269 0.0 0.0 0.02 0.03 0.03 91 1008.7
20260505053406 47 269 0.0 0.0 0.01 0.02 0.02 91 1008.6
20260505051906 47 269 0.0 0.0 0.01 0.02 0.02 91 1008.7
20260505051405 47 269 0.0 0.0 0.01 0.02 0.02 91 1008.8
20260505050908 47 269 0.0 0.0 0.02 0.02 0.02 90 1009.1
20260505050407 47 269 0.0 0.0 0.02 0.02 0.02 90 1009.1
20260505041406 48 269 0.0 0.0 0.01 0.01 0.01 88 1009.3
20260505040905 48 269 0.0 0.0 0.00 0.00 0.00 88 1009.3
20260505040409 48 269 0.0 5.2 0.00 0.00 0.00 87 1009.2
20260505034909 49 298 0.0 2.6 0.00 0.00 0.00 86 1008.9
20260505033906 49 327 0.0 5.2 0.00 0.00 0.00 84 1008.8
20260505033405 50 281 0.0 5.2 0.00 0.00 0.00 82 1008.8
20260505031905 52 281 0.0 2.6 0.00 0.00 0.00 76 1008.6
20260505031408 53 279 0.0 2.6 0.00 0.00 0.00 72 1008.5
20260505030907 54 351 0.0 2.6 0.00 0.00 0.00 67 1008.3
20260505030406 54 302 0.9 7.8 0.00 0.00 0.00 65 1008.2
20260505024906 54 13 0.0 0.0 0.00 0.00 0.00 63 1007.4
20260505024409 54 13 0.0 0.0 0.00 0.00 0.00 64 1007.3
20260505023406 54 13 0.0 0.0 0.00 0.00 0.00 64 1007.1
20260505021906 54 13 0.0 0.0 0.00 0.00 0.00 63 1006.9
20260505020906 54 13 0.0 0.0 0.00 0.00 0.00 62 1006.8
20260505020405 54 13 0.0 0.0 0.00 0.00 0.00 62 1006.9
20260505014920 55 13 0.0 0.0 0.00 0.00 0.00 61 1006.8
20260505014406 55 13 0.0 0.0 0.00 0.00 0.00 61 1006.5
20260505013919 55 13 0.0 0.0 0.00 0.00 0.00 60 1006.2
20260505013405 55 13 0.0 0.0 0.00 0.00 0.00 60 1006.2
20260505011904 56 13 0.0 0.0 0.00 0.00 0.00 60 1006.5
20260505011408 56 13 0.0 0.0 0.00 0.00 0.00 60 1006.4
20260505010907 56 13 0.0 0.0 0.00 0.00 0.00 60 1006.5
20260505010405 56 13 0.0 0.0 0.00 0.00 0.00 60 1006.2
20260505004906 57 302 0.0 0.0 0.00 0.00 0.00 58 1006.6
20260505004409 57 331 0.0 6.1 0.00 0.00 0.00 56 1006.6
20260505003908 58 272 0.9 7.0 0.00 0.00 0.00 54 1006.6
20260505003407 59 279 0.9 8.7 0.00 0.00 0.00 51 1006.5
20260505001404 60 305 0.0 0.0 0.00 0.00 0.00 45 1006.0
20260505000406 60 343 0.0 0.0 0.00 0.00 0.00 45 1005.5
20260504234905 60 327 0.0 2.6 0.00 0.00 0.00 45 1004.8
20260504234406 61 307 0.0 2.6 0.00 0.00 0.00 44 1004.6
20260504233905 61 353 0.9 8.7 0.00 0.00 0.00 43 1004.6
20260504233409 61 327 1.7 8.7 0.00 0.00 0.00 42 1004.6
20260504230905 62 0 0.0 2.6 0.00 0.00 0.00 39 1004.2
20260504230404 62 348 0.0 11.3 0.00 0.00 0.00 38 1004.0
20260504224909 63 331 0.9 10.4 0.00 0.00 0.00 35 1003.7
20260504224407 63 336 5.2 12.2 0.00 0.00 0.00 35 1003.8
20260504223906 63 355 4.3 12.2 0.00 0.00 0.00 35 1003.7
20260504223404 64 346 1.7 11.3 0.00 0.00 0.00 35 1003.9
20260504221407 65 347 5.2 10.4 0.00 0.00 0.00 32 1003.7
20260504220904 66 358 4.3 13.0 0.00 0.00 0.00 30 1003.6
20260504220406 68 6 0.0 11.3 0.00 0.00 0.00 26 1003.5
20260504214404 69 10 0.0 0.0 0.00 0.00 0.00 25 1003.1
20260504213906 69 22 0.0 0.0 0.00 0.00 0.00 25 1003.1
20260504213405 69 35 0.0 0.0 0.00 0.00 0.00 25 1003.1
20260504211404 69 353 0.0 1.7 0.00 0.00 0.00 26 1003.3
20260504210907 69 0 0.0 1.7 0.00 0.00 0.00 27 1003.4
20260504210406 69 351 0.0 2.6 0.00 0.00 0.00 27 1003.5
20260504204905 70 339 0.0 4.3 0.00 0.00 0.00 27 1003.8
20260504204404 70 331 1.7 7.0 0.00 0.00 0.00 28 1003.9
20260504203907 70 331 0.9 7.8 0.00 0.00 0.00 27 1003.9
20260504203406 70 330 0.9 7.8 0.00 0.00 0.00 27 1003.9
20260504201905 70 351 0.9 5.2 0.00 0.00 0.00 26 1004.1
20260504201409 69 344 0.0 5.2 0.00 0.00 0.00 27 1004.2
20260504200907 69 345 0.0 0.0 0.00 0.00 0.00 28 1004.2
20260504200406 70 356 0.9 6.1 0.00 0.00 0.00 26 1004.3
20260504193908 70 335 0.9 12.2 0.00 0.00 0.00 27 1004.1
20260504191404 67 0 0.0 0.0 0.00 0.00 0.00 29 1004.2
20260504190903 66 1 0.9 4.3 0.00 0.00 0.00 31 1004.2
20260504190406 64 293 0.9 10.4 0.00 0.00 0.00 33 1004.2
20260504184907 63 350 2.6 12.2 0.00 0.00 0.00 37 1004.2
20260504184405 63 313 2.6 12.2 0.00 0.00 0.00 36 1004.4
20260504183903 64 297 0.9 12.2 0.00 0.00 0.00 32 1004.5
20260504183407 64 342 6.1 13.0 0.00 0.00 0.00 33 1004.6
20260504180908 69 192 0.0 1.7 0.00 0.00 0.00 23 1004.0
20260504174911 69 345 0.0 0.0 0.00 0.00 0.00 23 1003.9
20260504174409 69 345 0.0 0.0 0.00 0.00 0.00 23 1004.0
20260504173907 70 345 0.0 0.0 0.00 0.00 0.00 22 1004.0
20260504173411 70 344 0.0 0.0 0.00 0.00 0.00 22 1004.1
20260504171906 72 356 0.0 0.0 0.00 0.00 0.00 21 1004.3
20260504171408 73 1 0.0 0.9 0.00 0.00 0.00 22 1004.3
20260504170907 73 105 0.0 0.9 0.00 0.00 0.00 22 1004.4
20260504170406 72 107 0.0 0.0 0.00 0.00 0.00 23 1004.4
20260504150907 62 141 0.0 0.0 0.00 0.00 0.00 32 1005.9
20260504150405 61 140 0.0 0.0 0.00 0.00 0.00 31 1006.0
20260504140906 50 106 0.0 0.0 0.00 0.00 0.00 62 1006.1
20260504140409 49 106 0.0 0.0 0.00 0.00 0.00 63 1006.1
20260504110408 42 106 0.0 0.0 0.00 0.00 0.00 64 1006.3
20260504100405 42 106 0.0 0.0 0.00 0.00 0.00 64 1006.8
20260504081906 48 106 0.0 0.0 0.00 0.00 0.00 56 1007.3
20260504081410 48 106 0.0 0.0 0.00 0.00 0.00 55 1007.3
20260504080909 48 106 0.0 0.0 0.00 0.00 0.00 53 1007.4
20260504080408 48 106 0.0 0.0 0.00 0.00 0.00 53 1007.4
20260504070408 52 106 0.0 0.0 0.00 0.00 0.00 47 1007.6